STARLINK-36839, 68125

Orbit data source: Space-Track

STARLINK-36839, 68125 is a payload satellite owned by SpaceX/Seattle (US) in SSO that was launched on Sun, 08 Mar 2026 UTC via an FALCON 9 launch vehicle from the Air Force Western Test Range (AFWTR). Payload-class satellites include a variety of spacecraft equipped with specific instruments for various scientific and technological missions. These include communications satellites like Starlink; space stations such as the ISS; scientific satellites like the Hubble; Earth observation satellites from companies like Planet Labs, Umbra, and HawkEye 360; GPS; miniature CubeSats for education and research; and military/defense satellites.

Loading next visibility...
Identifier
68125, 2026-044AA
Orbit
SSO
Country
Flag of USUS
Related business
Manufacturer
SpaceX/Seattle
Mission
Operational spacecraft
Bus & Motor
STARLINK V2MO, Unknown motor
Mass
575 kg wet, ~530 kg dry
Launch date (UTC)
2026-03-08 (2 months ago)
Launch vehicle
FALCON 9
Launch site
Air Force Western Test Range (AFWTR)
Object type
Payload
Rocket body
Debris
Shape & HBR
Unknown shape, 17.7 m
Radar Cross Section
RCS unknown

Expand to show TLE details & history
Last TLE update: 11 hours ago

TLE from 11 hours ago
0 STARLINK-36839
1 68125U 26044AA  26119.42886371  .00019013  00000-0  59029-3 0  9998
2 68125  97.2854  80.4895 0001646  88.8416 271.3016 15.33417037  9367
Epoch: 2026-04-29T10:17Z
TLE epoch observation values (Epoch: 2026-04-29T10:17:33.824Z)
Latitude
0.00004°
Longitude
68.7086°
Altitude
468.713 km
Speed
7.632 km/s
True Right ascension
05h 21m 57s
True Declination
0° 00' 00"
Sunlit
Object was in daylight at epoch
Visualization orbit readout
Latitude
Unknown
Longitude
Unknown
Altitude
Unknown
Speed
Unknown
Apparent Right ascension
Unknown
Apparent Declination
Unknown
Sunlit
N/A
Visualization observer readout
Local Sidereal Time
04:41:06
Azimuth
Unknown
Elevation
Unknown
Doppler factor
Unknown
Orbital elements
Apogee altitude
463.695 km
Perigee altitude
461.443 km
Semi-major axis
6,840.706 km
Eccentricity
0.00016
Inclination
97.2854°
RAAN
80.4895°
Arg. of periapsis
88.8416°
True anomaly
271.28274°
Mean anomaly
271.3016°
Eccentric anomaly
271.29217°
Mean motion
3.83612 °/min
Orbital period
93.84 mins
BSTAR
0.00059029
Loading maneuver chart data...
Computing Atmospheric mass density...
Loading historical data...
Loading historical data...
Loading historical data...
Loading historical data...
Loading historical data...
Loading historical data...
Loading historical data...

Documentation

Showing up to 5 results
|